Theta_e
322 321 319 320 320 320 320 321 322 324 324 322 321 324 325 325 326 323 314 320 322 330 325 312 314 312 309 304 304 304 296 293 296 299 301 299 298 302 306 306 307 311 316 318 323
322 322 321 319 321 320 320 320 323 324 324 323 322 322 325 325 318 313 323 330 330 329 317 309 309 308 304 305 303 300 297 297 301 302 302 299 299 301 302 304 306 310 316 322 322
322 322 322 321 321 321 320 320 322 323 323 323 322 322 325 323 308 309 323 329 332 327 316 314 312 308 303 303 303 299 298 303 305 305 303 299 298 301 301 300 306 309 315 320 320
321 321 321 321 321 321 319 320 322 323 323 322 322 321 323 317 292 312 327 329 330 320 316 312 310 306 305 301 304 299 302 302 305 307 306 303 300 299 303 305 306 312 320 321 320
320 320 320 320 320 321 320 320 321 322 322 322 321 321 317 305 305 318 329 327 322 319 312 310 307 306 304 305 305 303 305 309 308 308 306 302 298 299 300 305 306 318 320 321 321
319 319 319 319 320 320 320 319 320 321 322 322 321 322 306 296 313 321 322 319 318 317 313 311 311 309 306 305 306 306 307 307 308 308 308 302 301 298 301 301 312 318 318 320 321
319 319 319 319 319 320 319 319 319 321 322 322 321 315 305 300 315 318 321 320 317 316 311 314 314 312 308 303 307 306 303 304 305 307 305 299 298 294 301 299 307 315 317 319 320
318 318 318 318 318 318 319 319 319 320 321 321 320 306 296 309 315 315 316 317 320 319 318 316 317 311 309 309 306 301 301 295 301 305 306 302 300 301 300 298 298 309 314 317 319
317 317 318 318 317 317 318 318 318 318 319 319 307 302 295 314 308 313 313 313 316 317 317 318 315 309 307 302 298 298 295 296 296 303 302 297 297 303 303 296 297 297 308 315 317
317 317 317 318 317 317 317 317 316 315 313 313 310 299 301 300 307 311 311 313 311 312 309 308 306 301 301 297 286 290 290 293 293 297 295 293 293 298 297 297 299 300 298 310 315
317 317 316 317 317 317 315 307 299 297 303 295 297 295 299 306 312 308 312 310 309 306 298 302 297 292 295 298 297 293 291 290 293 298 297 296 296 297 300 296 295 296 295 298 310
315 316 316 316 316 316 309 298 297 297 291 300 299 300 302 307 300 306 312 301 300 295 298 295 291 294 298 299 296 295 291 290 293 297 296 295 296 300 302 300 297 299 298 298 298
313 316 316 316 316 312 303 299 303 300 288 292 298 298 298 301 298 301 307 301 294 293 292 290 291 295 295 293 293 293 291 291 291 294 296 293 293 297 301 304 304 301 301 302 300
313 313 316 315 308 307 300 303 304 296 275 283 291 295 299 299 293 306 307 300 296 291 292 291 295 293 292 292 294 288 294 294 293 291 286 293 286 295 298 301 303 305 300 301 302
311 312 313 315 306 302 303 304 301 292 263 284 290 299 298 293 293 297 307 299 293 293 293 287 291 291 290 292 294 291 295 293 292 291 291 291 287 291 295 295 299 303 304 303 303
309 311 312 311 308 306 306 305 298 278 266 277 290 289 291 293 290 297 300 300 298 293 292 290 293 296 293 296 296 296 293 293 294 291 284 289 289 288 292 296 299 300 303 304 306
309 309 309 307 301 308 305 298 281 272 278 282 284 289 287 287 289 290 291 290 286 283 282 287 291 293 295 293 297 295 291 282 281 280 282 289 288 290 295 299 301 300 302 303 305
309 309 308 307 309 306 302 287 274 275 274 286 286 288 284 286 286 288 287 286 289 285 280 281 275 290 294 293 290 292 291 283 277 278 281 285 284 289 297 301 303 301 299 301 303
308 304 302 305 308 305 292 278 277 277 281 285 287 283 283 285 285 285 285 285 288 289 281 279 280 289 292 294 294 288 287 292 285 281 280 282 283 290 294 293 298 300 298 293 296
300 298 298 306 307 300 286 282 281 284 287 288 280 283 280 282 284 283 283 287 286 291 290 285 280 287 290 293 294 293 294 285 286 278 277 280 282 285 286 293 296 295 296 300 293
297 290 298 305 303 291 281 282 284 286 290 285 282 282 283 283 285 282 283 286 289 289 291 287 285 282 290 289 287 289 288 290 290 286 280 279 283 293 293 291 294 298 298 296 298
294 284 299 303 287 285 283 285 289 287 288 287 285 283 284 285 285 284 283 286 293 291 286 289 285 279 283 291 294 293 290 290 284 282 284 284 285 288 291 297 297 297 296 292 291
286 287 300 299 281 282 285 284 287 285 286 286 284 286 286 286 282 286 285 291 293 291 288 291 285 280 283 286 289 289 291 291 290 286 284 281 284 289 285 285 288 290 291 289 290
285 282 289 292 289 286 283 283 282 286 286 287 286 288 286 284 286 284 285 290 292 293 297 295 287 285 280 281 286 285 288 291 290 285 285 285 288 292 287 286 287 288 289 289 290
286 284 285 282 283 286 286 284 282 281 285 287 285 284 285 280 283 283 287 289 291 295 294 293 284 287 287 287 288 287 287 289 287 288 285 288 289 292 295 291 289 289 289 289 290
283 284 286 286 287 284 286 282 282 282 283 283 282 285 286 282 284 281 285 284 283 288 290 292 279 283 282 287 288 286 288 289 290 289 290 290 290 292 293 288 288 288 288 289 291
290 291 289 287 285 284 284 284 283 284 283 286 284 285 283 284 286 288 289 289 289 288 286 283 281 281 279 284 284 282 286 287 289 292 291 287 292 295 291 288 287 288 288 290 291
Wind_Speed
16 15 15 14 12 10 9 8 7 8 6 3 1 5 2 3 3 1 6 6 3 2 3 3 5 4 4 3 1 4 4 4 5 6 4 1 3 3 1 6 2 4 7 3 16
18 17 16 16 13 13 12 11 9 8 9 6 3 1 2 4 1 6 5 7 3 4 1 2 2 3 1 2 3 4 5 9 6 4 3 2 4 3 3 3 2 2 0 11 18
20 19 18 16 15 13 12 10 9 9 10 8 4 2 6 4 0 6 4 13 6 4 2 2 4 3 3 2 3 4 8 6 5 4 1 2 2 4 4 4 10 12 7 16 17
21 20 20 18 16 15 14 11 10 10 9 8 6 3 6 2 6 1 9 3 5 4 5 4 3 5 2 4 2 2 8 7 3 2 5 4 1 3 8 9 3 9 14 17 18
21 20 20 19 17 16 14 13 9 10 11 9 8 7 4 3 7 2 10 9 6 2 5 4 4 5 5 3 1 2 3 6 2 2 3 6 7 7 7 11 5 8 11 20 19
22 21 19 18 18 17 15 13 10 9 12 11 10 9 1 6 1 3 8 5 3 3 1 3 3 1 2 4 5 1 4 9 3 4 5 2 8 6 9 4 5 9 14 16 18
25 23 21 21 19 18 17 14 12 8 10 12 11 5 3 12 2 5 5 4 3 3 4 1 1 1 5 1 1 1 4 8 5 3 6 5 10 8 12 3 8 10 11 13 16
26 25 24 22 22 20 18 16 11 9 9 11 10 3 6 4 6 4 4 4 3 3 4 4 3 4 1 2 1 3 1 4 2 4 6 8 19 3 11 7 11 10 11 13 14
28 27 26 24 23 22 19 17 12 10 10 10 3 4 6 7 6 4 3 7 6 3 3 1 1 2 2 2 3 2 2 3 6 5 5 10 4 8 11 9 11 10 11 14 15
30 29 29 27 25 24 21 17 11 8 5 4 1 3 4 6 5 6 1 7 4 7 4 3 3 4 4 8 11 8 6 6 8 2 3 8 15 8 7 8 16 17 12 13 16
26 26 27 28 28 26 21 9 6 2 7 6 9 4 4 3 5 4 6 6 4 2 6 4 6 16 16 13 8 3 7 10 1 3 1 7 17 9 14 11 9 12 10 14 17
19 30 32 31 30 29 16 10 14 8 9 11 2 3 2 5 5 9 10 8 6 11 4 1 18 4 6 9 16 12 12 14 3 3 2 9 21 12 13 21 11 17 15 16 14
15 23 37 36 32 25 21 18 11 7 7 6 3 7 4 2 4 13 16 6 7 14 17 17 6 17 12 7 15 19 22 13 9 3 6 4 22 17 11 18 17 18 18 17 18
20 14 24 29 24 19 20 11 7 5 6 4 11 8 5 7 3 8 15 11 7 17 13 14 19 4 8 19 15 21 13 12 12 5 11 4 18 21 10 20 18 22 19 20 20
18 20 14 35 16 20 18 10 9 7 4 7 9 4 11 8 9 8 13 3 10 8 8 10 8 17 20 19 15 14 6 8 15 15 13 16 8 21 12 19 25 15 20 22 22
24 20 21 19 17 20 23 13 5 7 10 4 7 11 12 14 5 5 10 2 5 5 5 8 2 7 9 16 18 5 9 6 8 12 13 29 17 30 20 25 18 11 16 22 24
24 23 19 6 17 21 21 12 11 10 4 11 11 16 20 17 12 8 16 15 9 11 12 8 14 3 4 6 9 11 8 4 6 7 13 10 15 30 9 16 24 16 13 19 23
23 23 20 10 6 23 15 15 11 13 9 5 11 18 16 12 12 13 17 16 17 7 4 13 6 22 9 22 5 13 13 6 8 7 10 3 13 27 16 28 28 21 16 12 16
24 12 12 9 13 14 19 19 15 15 11 15 17 18 9 10 10 8 18 21 17 20 11 9 10 2 3 5 16 7 13 14 12 6 5 6 11 18 17 13 15 22 17 13 12
12 11 15 16 15 18 20 20 7 10 11 15 10 12 16 23 10 17 16 17 14 27 5 4 4 6 6 4 12 19 4 8 11 16 25 10 14 19 4 19 23 20 20 20 12
13 10 9 18 16 11 19 10 9 7 17 9 8 9 13 19 14 18 15 6 26 17 24 5 4 2 8 14 18 10 12 10 4 6 13 15 14 18 19 11 18 21 23 20 19
12 12 8 15 14 10 17 11 7 10 4 5 6 5 15 19 16 19 15 7 13 18 26 23 4 13 22 3 14 18 20 24 11 19 8 13 26 4 10 19 19 20 17 9 7
7 4 8 18 16 13 14 11 7 9 8 7 4 3 3 14 11 14 9 6 6 18 15 14 11 9 4 4 5 17 23 22 23 5 22 18 22 7 6 10 15 16 12 10 8
5 7 6 11 6 16 21 17 8 3 5 6 6 6 8 6 2 16 8 5 9 13 18 16 6 9 15 5 6 13 19 25 22 15 21 20 33 21 9 10 12 11 7 6 6
5 4 3 8 13 14 21 20 17 10 4 7 4 5 10 6 12 5 8 3 2 9 7 8 12 11 20 19 14 17 24 29 27 33 19 33 27 24 18 17 12 9 9 7 8
4 5 1 5 17 13 25 24 26 14 11 15 11 11 16 10 9 8 8 4 5 3 7 4 8 5 19 14 19 25 22 24 30 33 30 37 32 8 9 8 8 10 8 9 10
1 2 3 11 14 16 16 28 22 14 4 8 10 11 10 7 8 8 8 4 4 9 7 6 4 1 7 6 12 21 35 26 30 31 32 30 41 11 10 11 10 10 9 10 7
Wind_Direction
218 218 217 219 213 205 211 222 233 192 202 223 346 16 62 112 94 73 244 218 242 299 45 349 31 334 355 342 136 122 80 225 232 174 244 229 209 131 220 130 216 170 157 232 137
218 215 215 215 212 212 215 220 232 221 192 196 219 87 158 124 164 234 255 236 242 276 98 101 82 358 315 308 288 125 143 219 207 224 232 280 189 188 180 152 271 235 50 131 141
220 214 210 207 205 205 204 212 240 232 197 178 197 193 146 155 69 242 276 244 212 217 176 137 109 96 198 3 237 224 188 150 227 255 278 305 237 173 154 250 211 199 156 154 157
220 216 208 202 201 198 198 205 232 222 198 176 174 183 164 170 212 257 295 209 134 138 102 125 121 125 192 201 304 255 266 170 188 7 315 266 185 242 185 232 287 191 166 158 172
216 214 209 201 197 194 193 201 212 213 193 185 165 166 158 198 254 280 108 109 105 94 156 163 146 138 188 174 276 225 282 303 41 27 285 306 278 252 233 241 29 137 161 179 183
211 209 206 202 193 188 189 194 208 207 195 189 173 171 205 222 331 146 128 119 110 112 96 134 187 165 114 191 187 18 289 284 305 274 281 256 267 152 270 154 129 166 182 193 194
206 204 202 201 190 186 185 185 194 192 202 193 178 135 205 219 62 86 112 163 112 128 130 303 155 261 137 168 53 308 279 303 273 208 241 156 273 197 242 184 188 195 200 202 216
208 200 198 194 193 186 181 176 175 182 197 197 161 97 225 231 136 94 113 111 142 70 125 153 103 97 111 73 164 197 138 248 42 164 233 170 242 228 233 180 230 215 205 207 211
212 199 195 194 187 183 178 176 166 173 191 179 108 146 240 114 158 179 159 127 117 98 82 110 22 159 142 166 235 204 259 208 318 202 210 205 272 229 227 191 240 228 215 211 221
210 200 193 192 187 179 171 166 171 140 147 106 18 143 225 202 178 157 144 141 117 110 85 179 169 197 187 190 215 212 219 218 203 195 36 287 266 271 286 221 221 235 221 213 220
205 195 198 191 188 172 161 132 124 174 200 187 169 227 136 139 119 147 155 123 99 126 167 187 203 214 214 217 236 335 245 242 144 187 280 246 271 249 257 246 237 252 237 229 228
213 204 194 194 185 170 161 184 174 163 177 231 42 258 129 164 133 173 152 165 163 187 173 23 242 164 197 212 233 241 262 262 311 234 291 278 271 250 243 258 232 239 242 235 232
201 207 197 186 181 169 181 189 153 122 123 221 189 201 166 108 168 185 171 160 180 194 204 213 222 194 206 212 231 237 239 252 252 5 254 322 282 264 239 256 246 249 245 242 231
200 198 194 176 186 177 192 172 144 106 82 215 186 236 169 151 241 163 185 164 173 200 191 230 236 196 195 225 206 242 215 246 268 278 262 149 279 260 219 244 240 233 228 239 240
220 197 215 178 173 188 163 163 134 66 126 197 176 176 157 176 135 218 191 170 181 163 179 220 181 207 222 218 207 238 168 203 230 245 259 249 260 278 189 234 244 232 228 227 230
211 205 198 209 181 176 152 157 111 109 224 188 137 164 158 188 175 131 177 222 159 178 230 224 214 197 213 214 205 170 252 289 257 232 233 238 220 273 238 239 264 229 219 220 231
206 206 195 200 185 159 150 148 170 180 225 171 180 174 173 185 185 162 189 195 173 184 218 210 229 246 219 182 208 200 194 232 230 213 242 232 221 246 254 251 234 241 230 220 226
208 206 202 199 176 156 157 173 191 189 197 161 158 168 183 143 201 175 167 198 220 202 150 202 277 210 182 215 195 205 197 204 223 225 251 217 216 242 236 240 247 252 234 227 236
205 204 199 188 181 179 164 188 173 178 166 148 129 156 185 193 161 160 191 203 201 197 185 176 244 203 161 165 184 188 224 226 276 245 261 218 273 288 264 254 248 245 232 225 229
195 201 211 183 177 182 184 173 168 155 128 150 148 173 179 183 163 190 177 209 213 204 188 237 267 188 183 149 220 224 206 194 206 243 246 233 247 250 244 231 229 227 232 229 206
195 195 186 178 174 188 192 190 172 173 146 153 154 148 178 180 188 188 196 241 198 189 198 195 203 202 143 202 194 197 226 227 269 203 243 260 252 240 236 224 239 246 233 227 214
192 202 167 161 186 182 183 175 164 165 125 115 113 104 161 166 182 190 205 219 178 174 195 205 223 243 228 150 220 225 224 218 227 223 227 257 265 214 243 233 236 249 242 226 186
187 148 175 179 199 172 164 176 205 155 148 152 133 138 154 164 171 200 178 219 175 179 180 170 204 240 247 240 229 219 218 224 234 276 235 231 256 205 281 284 254 236 232 206 178
158 156 170 197 205 168 164 171 163 117 135 128 128 106 109 152 195 185 189 197 187 190 209 160 193 220 234 213 148 214 221 219 221 233 242 238 258 261 288 258 270 271 230 180 171
193 169 177 170 202 172 165 164 175 159 169 143 75 190 150 139 193 156 162 129 203 198 196 209 248 244 255 265 269 224 222 215 216 229 228 244 243 257 256 273 266 261 234 167 181
152 131 97 177 180 199 173 183 180 169 161 178 152 186 187 161 168 147 133 186 192 186 181 179 247 223 267 270 254 250 249 224 221 227 235 250 258 278 269 243 230 229 233 220 198
120 95 85 169 176 172 194 176 182 159 17 174 125 161 200 154 124 131 158 167 162 149 169 160 151 189 277 290 303 257 225 221 226 227 225 233 240 240 289 281 270 252 226 232 224